カタログに戻る

STARLINK-33984

運用中通信VLEO
NORAD 63830·PAYLOAD·🇺🇸 United States

打ち上げ May 4, 2025 から Cape Canaveral Space Force Station

Loading…

次のパス (今後24時間)

TLE

最新Source: CelesTrak SupGP

元期: Sep 14, 2026, 23:06 UTC

1 63830C 25092AC  26257.96298611 -.00022447  00000+0 -81306-3 0  2570
2 63830  43.0012 183.5359 0001347 266.6549  53.2216 15.27588854    12

AllMySatでSTARLINK-33984をリアルタイム追跡

Download on the App Store